Location: Buisson
(44.2787°N, 4.9969°E)
Time: 01:42:40
(UTC+00:00)

Okean 2 Rocket - Pass Details

Date: 18 April 2021
Orbit: 616 x 642 km, 82.5° (Epoch: 07 May)

Event Time Altitude Azimuth Distance (km) Brightness Sun altitude
Rises 04:10:50 0° 339° (NNW) 2,925 6.6 -7.6°
Reaches altitude 10° 04:13:25 10° 325° (NW) 2,007 5.6 -7.2°
Maximum altitude 04:16:57 24° 272° (W) 1,304 4.2 -6.6°
Drops below altitude 10° 04:20:28 10° 219° (SW) 1,983 5.1 -6.1°
Sets 04:23:00 0° 205° (SSW) 2,880 6.0 -5.6°
